Flag for Hungary Weather past 2 weeks in Miskolc, Hungary

Now
79 °F

Overcast.


Feels Like: 80 °F
Forecast: 62 / 77 °F
Wind: 3 mph from Northeast

Location: Miskolc

Current Time: Sep 2, 2014 at 6:07:05 PM

Latest Report: Sep 2, 2014 at 5:00 PM


Visibility: 25 mi

Pressure: 29.84 "Hg

Humidity: 47%

Dew point: 57 °F

Location of MiskolcLocation

Historic Weather in Miskolc — Graph

°F

Miskolc temperature yesterday

Maximum temperature yesterday: 79 °F (at 5:00 PM)
Minimum temperature yesterday: 60 °F (at 7:00 AM)
Average temperature yesterday: 68 °F

Past Weeks' High & Low Weather Summary

 TemperatureHumidityPressure
High80 °F (Sep 2, 3:00 PM)94% (Aug 24, 2:00 AM)30.16 "Hg (Aug 24, 2:00 AM)
Low46 °F (Aug 28, 6:00 AM)33% (Aug 25, 5:00 PM)29.72 "Hg (Aug 27, 1:00 PM)
Average63 °F72%29.96 "Hg
* Reported Aug 18 4:00 PM — Sep 2 4:00 PM, Miskolc, Weather by CustomWeather, © 2014

Note: Actual official high and low records may vary slightly from our data, if they occured in-between our weather recording intervals... More about our weather records

Advertising

Miskolc weather history for previous 24 hours

 ConditionsComfort  
Time TempWeatherWind HumidityBarometerVisibility
4:00 PM
Sep 2
80 °FOvercast.3 mph43%29.83 "Hg25 mi
3:00 PM80 °FOvercast.2 mph42%29.84 "Hg22 mi
2:00 PM78 °FOvercast.3 mph46%29.85 "Hg19 mi
1:00 PM77 °FOvercast.2 mph49%29.86 "Hg16 mi
12:00 PM75 °FOvercast.2 mph56%29.86 "Hg16 mi
11:00 AM72 °FOvercast.2 mph65%29.87 "Hg16 mi
10:00 AM69 °FOvercast.1 mph71%29.87 "Hg16 mi
9:00 AM67 °FOvercast.1 mph76%29.86 "Hg16 mi
8:00 AM64 °FOvercast.1 mph85%29.86 "Hg12 mi
7:00 AM61 °FOvercast.1 mph88%29.85 "Hg12 mi
6:00 AM61 °FOvercast.1 mph88%29.85 "Hg12 mi
5:00 AM61 °FPassing clouds.1 mph88%29.84 "Hg12 mi
4:00 AM61 °FPassing clouds.1 mph88%29.84 "Hg12 mi
3:00 AM61 °FPassing clouds.1 mph89%29.85 "Hg12 mi
2:00 AM62 °FPassing clouds.1 mph88%29.85 "Hg12 mi
1:00 AM62 °FPassing clouds.No wind87%29.85 "Hg16 mi
12:00 AM63 °FPassing clouds.1 mph85%29.85 "Hg16 mi
11:00 PM
Sep 1
65 °FPassing clouds.1 mph82%29.84 "Hg16 mi
10:00 PM66 °FOvercast.2 mph79%29.84 "Hg16 mi
9:00 PM67 °FPassing clouds.No wind77%29.83 "Hg16 mi
8:00 PM69 °FOvercast.No wind74%29.82 "Hg16 mi
7:00 PM73 °FOvercast.No wind62%29.81 "Hg16 mi
6:00 PM78 °FOvercast.2 mph46%29.80 "Hg16 mi
Weather by CustomWeather, © 2014

See weather overviewHow to use our weather pages